#timestamp,LO_Frequency,Hit 
1500879695.9,286046998.4,Y
1500879715.7,286046999.5,N
1500879735.6,286046996.5,Y
1500879755.4,286046999.5,N
1500879775.2,286046999.0,N
1500879795.1,286046997.0,N
1500879796.0,286046997.0,N
1500879815.8,286046999.5,N
1500879835.6,286046999.5,N
1500879855.5,286046996.5,N
1500879875.3,286046999.2,N
1500879895.2,286046999.5,N
1500879915.9,286046999.6,N
1500879935.7,286046997.0,N
1500879955.6,286046999.2,N
1500879975.4,286046998.9,N
1500879995.2,286046998.8,N
1500880015.1,286046998.9,N
1500880016.0,286046998.9,N
1500880035.8,286046999.1,N
1500880055.7,286046999.4,N
1500880075.5,286046999.5,N
1500880095.3,286046999.1,N
1500880115.2,286046999.1,N
1500880135.0,286046999.4,N
1500880135.9,286046999.4,N
1500880155.8,286046999.1,Y
1500880175.6,286046998.8,Y
1500880195.4,286046998.1,Y
1500880215.3,286047000.5,N
1500880235.1,286047000.2,N
1500880255.8,286046999.8,N
1500880275.7,286047000.2,N
1500880295.5,286046999.9,N
1500880315.4,286047000.6,N
1500880335.2,286047000.3,N
1500880355.0,286047000.0,N
1500880355.9,286047000.0,N
1500880375.8,286047000.4,N
1500880395.6,286047000.0,N
1500880415.4,286047000.6,N
1500880435.3,286047000.9,N
1500880455.1,286047000.5,N
1500880475.9,286047000.9,N
1500880495.7,286047001.0,N
1500880515.5,286047000.4,N
1500880535.4,286047000.3,N
1500880555.2,286047000.3,N
1500880575.1,286046999.8,N
1500880576.0,286046999.8,N
1500880595.8,286047002.8,Y
1500880615.6,286047000.4,N
1500880635.5,286047000.3,N
1500880655.3,286047001.1,N
1500880675.1,286047001.2,N
1500880695.9,286047000.5,N
1500880715.7,286047000.4,N
1500880735.6,286047001.0,N
1500880755.4,286047000.7,N
1500880775.2,286047001.0,N
1500880795.1,286047000.2,N
1500880796.0,286047000.2,N
1500880815.8,286046999.9,N
1500880835.7,286046999.9,N
1500880855.5,286047002.8,Y
1500880875.3,286047001.1,N
1500880895.2,286047000.9,N
1500880915.0,286047001.2,N
1500880915.9,286047001.2,N
1500880935.7,286047000.5,N
1500880955.6,286047000.3,N
1500880975.4,286046999.9,N
1500880995.3,286047000.0,N
1500881015.1,286046998.3,N
1500881046.0,286047000.3,Y
1500881055.1,286047000.7,N
1500881056.0,286047000.7,N
1500881075.8,286047000.5,N
1500881095.6,286047000.9,N
1500881115.5,286047000.5,N
1500881135.3,286047000.6,N
1500881155.1,286047000.7,N
1500881175.9,286047000.7,N
1500881195.7,286046998.1,N
1500881215.6,286047001.1,N
1500881235.4,286047001.1,N
1500881255.2,286047000.5,N
1500881275.1,286047000.3,N
1500881276.0,286047000.3,N
1500881295.8,286047001.2,N
1500881315.7,286047001.2,N
1500881335.5,286047000.6,N
1500881355.3,286047000.7,N
1500881375.2,286047000.9,N
1500881395.9,286047001.1,N
1500881415.7,286047001.2,N
1500881435.6,286046998.4,N
1500881455.4,286046998.5,N
1500881475.3,286046998.2,N
1500881495.1,286047001.2,N
1500881496.0,286047001.2,N
1500881515.8,286047000.0,N
1500881535.7,286047000.6,N
1500881555.5,286046998.1,N
1500881575.3,286047000.9,N
1500881595.2,286046998.4,N
1500881615.0,286047001.0,N
1500881615.9,286047001.0,N
1500881635.8,286047000.6,N
1500881655.6,286047000.0,N
1500881675.4,286046999.8,N
1500881695.3,286047000.5,N
1500881715.1,286046998.5,N
1500881735.8,286047000.7,N
1500881755.7,286046998.6,N
1500881775.5,286046998.3,N
1500881795.4,286046998.6,N
1500881815.2,286046998.5,N
1500881835.0,286047001.2,N
1500881835.9,286047001.2,N
1500881855.8,286047001.0,N
1500881875.6,286047000.9,N
1500881895.4,286047000.8,N
1500881915.3,286047000.3,N
1500881935.1,286047000.7,N
1500881955.9,286047000.7,N
1500881975.7,286047001.2,N
1500881995.5,286046998.6,N
1500882015.4,286046998.2,N
1500882035.2,286047001.2,N
1500882055.0,286046998.2,N
1500882055.9,286046998.2,N
1500882075.8,286046999.9,N
1500882095.6,286047001.0,N
1500882115.5,286047000.6,N
1500882135.3,286047000.8,N
1500882155.1,286047000.1,N
1500882175.9,286046999.7,N
1500882195.7,286047000.1,N
1500882215.5,286046999.8,N
1500882235.4,286047001.6,N
1500882255.2,286047002.2,N
1500882275.1,286047001.5,N
1500882276.0,286047001.5,N
1500882295.8,286047001.7,N
1500882315.6,286047002.2,N
1500882335.5,286047002.0,N
1500882355.3,286047002.5,N
1500882375.1,286047002.1,N
1500882395.9,286047002.3,N
1500882415.7,286047002.4,N
1500882435.6,286047002.2,N
1500882455.4,286047002.4,N
1500882475.2,286046999.8,N
1500882495.1,286047002.8,Y
1500882496.0,286047002.8,Y
1500882515.8,286046998.9,N
1500882535.7,286046996.9,N
1500882555.5,286046997.1,N
1500882575.3,286046997.7,N
1500882595.2,286046996.9,N
1500882615.9,286046997.3,N
1500882635.7,286046997.2,N
1500882655.6,286046997.8,N
1500882675.4,286046997.6,N
1500882695.2,286046997.8,N
1500882715.1,286046997.4,N
1500882716.0,286046997.4,N
1500882735.8,286046996.7,N
1500882755.7,286046997.1,N
1500882775.5,286046996.8,N
1500882795.3,286046996.7,N
1500882815.2,286046996.9,N
1500882835.0,286046997.2,N
1500882835.9,286046997.2,Y
1500882855.8,286047000.7,N
1500882875.6,286046998.3,N
1500882895.4,286046998.1,N
1500882915.3,286046998.7,N
1500882935.1,286047001.2,N
1500882955.8,286047000.1,N
1500882975.7,286047000.2,N
1500882995.5,286047002.6,N
1500883015.4,286047000.4,N
1500883035.2,286047002.2,N
1500883055.0,286047002.6,N
1500883055.9,286047002.6,N
1500883075.8,286047002.3,N
1500883095.6,286047002.8,N
1500883115.4,286047000.1,N
1500883135.3,286047002.1,N
1500883155.1,286047002.4,N
1500883175.9,286046999.7,N
1500883195.7,286047000.4,N
